International Skating Union - Official Site

ISU European Allround Speed Skating Championships 2017
January 6-8, 2017

Draw | Lap Times | Index | Classification

Referee: Ekaterina  PILSHCHIKOVA  (RUS)
Starter: Jouko  VESTERLUND  (FIN)
StartTime: EndTime: Air Temp: Ice Temp: Humidity:
19:46 20:41 15.0℃ -7.7℃ 32%
Result 3000m Ladies
Rankings as of Jan 7 2017 2:24PM
Rank: No.: Name: Nation: Time: Behind: Points:
1 63 Ireen  Wüst NED NED 4:03.93200m - 19.30 - (19.3)
600m - 49.41 - (30.1)
1000m - 1:20.13 - (30.7)
1400m - 1:51.67 - (31.5)
1800m - 2:23.64 - (31.9)
2200m - 2:56.28 - (32.6)
2600m - 3:29.79 - (33.5)
3000m - 4:03.93 - (34.1)
40.655
2 54 Martina  Sáblíková CZE CZE 4:04.73200m - 20.47 - (20.4)
600m - 51.76 - (31.2)
1000m - 1:23.78 - (32.0)
1400m - 1:56.28 - (32.4)
1800m - 2:28.65 - (32.3)
2200m - 3:01.06 - (32.4)
2600m - 3:33.02 - (31.9)
3000m - 4:04.73 - (31.7)
0.80 40.788
3 61 Antoinette  de Jong NED NED 4:05.44200m - 19.99 - (19.9)
600m - 51.14 - (31.1)
1000m - 1:22.78 - (31.6)
1400m - 1:55.10 - (32.3)
1800m - 2:27.23 - (32.1)
2200m - 2:59.64 - (32.4)
2600m - 3:32.43 - (32.7)
3000m - 4:05.44 - (33.0)
1.51 40.906
4 74 Anna  Yurakova RUS RUS 4:06.50200m - 20.27 - (20.2)
600m - 51.64 - (31.3)
1000m - 1:23.80 - (32.1)
1400m - 1:55.84 - (32.0)
1800m - 2:28.25 - (32.4)
2200m - 3:00.94 - (32.6)
2600m - 3:33.69 - (32.7)
3000m - 4:06.50 - (32.8)
2.57 41.083
5 62 Yvonne  Nauta NED NED 4:07.32200m - 20.22 - (20.2)
600m - 51.25 - (31.0)
1000m - 1:23.26 - (32.0)
1400m - 1:55.49 - (32.2)
1800m - 2:27.81 - (32.3)
2200m - 3:00.39 - (32.5)
2600m - 3:33.74 - (33.3)
3000m - 4:07.32 - (33.5)
3.39 41.220
6 71 Olga  Graf RUS RUS 4:08.89200m - 21.07 - (21.0)
600m - 53.18 - (32.1)
1000m - 1:25.66 - (32.4)
1400m - 1:58.42 - (32.7)
1800m - 2:30.84 - (32.4)
2200m - 3:03.59 - (32.7)
2600m - 3:36.05 - (32.4)
3000m - 4:08.89 - (32.8)
4.96 41.481
7 58 Claudia  Pechstein GER GER 4:10.02200m - 21.06 - (21.0)
600m - 53.24 - (32.1)
1000m - 1:25.64 - (32.4)
1400m - 1:58.08 - (32.4)
1800m - 2:30.81 - (32.7)
2200m - 3:03.76 - (32.9)
2600m - 3:36.81 - (33.0)
3000m - 4:10.02 - (33.2)
6.09 41.670
8 68 Natalia  Czerwonka POL POL 4:12.66200m - 20.37 - (20.3)
600m - 51.44 - (31.0)
1000m - 1:23.17 - (31.7)
1400m - 1:55.15 - (31.9)
1800m - 2:27.85 - (32.6)
2200m - 3:01.67 - (33.8)
2600m - 3:36.82 - (35.1)
3000m - 4:12.66 - (35.8)
8.73 42.110
9 52 Jelena  Peeters BEL BEL 4:13.28200m - 20.48 - (20.4)
600m - 52.71 - (32.2)
1000m - 1:25.55 - (32.8)
1400m - 1:58.70 - (33.1)
1800m - 2:31.78 - (33.0)
2200m - 3:05.10 - (33.3)
2600m - 3:38.91 - (33.8)
3000m - 4:13.28 - (34.3)
9.35 42.213
10 66 Ida  Njåtun NOR NOR 4:13.70200m - 19.97 - (19.9)
600m - 51.46 - (31.4)
1000m - 1:23.83 - (32.3)
1400m - 1:56.17 - (32.3)
1800m - 2:29.13 - (32.9)
2200m - 3:02.80 - (33.6)
2600m - 3:37.69 - (34.8)
3000m - 4:13.70 - (36.0)
9.77 42.283
11 70 Katarzyna  Wozniak POL POL 4:14.31200m - 20.54 - (20.5)
600m - 52.18 - (31.6)
1000m - 1:24.01 - (31.8)
1400m - 1:56.07 - (32.0)
1800m - 2:28.87 - (32.7)
2200m - 3:02.59 - (33.7)
2600m - 3:37.80 - (35.2)
3000m - 4:14.31 - (36.5)
10.38 42.385
12 55 Nikola  Zdráhalova CZE CZE 4:15.86200m - 20.08 - (20.0)
600m - 52.28 - (32.1)
1000m - 1:25.36 - (33.0)
1400m - 1:58.82 - (33.4)
1800m - 2:32.79 - (33.9)
2200m - 3:07.13 - (34.3)
2600m - 3:41.66 - (34.5)
3000m - 4:15.86 - (34.1)
11.93 42.643
13 67 Katarzyna  Bachleda-Curus POL POL 4:17.56200m - 20.43 - (20.4)
600m - 51.82 - (31.3)
1000m - 1:24.24 - (32.4)
1400m - 1:57.38 - (33.1)
1800m - 2:31.28 - (33.8)
2200m - 3:05.72 - (34.4)
2600m - 3:40.99 - (35.2)
3000m - 4:17.56 - (36.5)
13.63 42.926
14 59 Francesca  Lollobrigida ITA ITA 4:18.44200m - 20.75 - (20.7)
600m - 53.56 - (32.8)
1000m - 1:26.04 - (32.4)
1400m - 1:59.31 - (33.2)
1800m - 2:33.16 - (33.8)
2200m - 3:07.99 - (34.8)
2600m - 3:42.77 - (34.7)
3000m - 4:18.44 - (35.6)
14.51 43.073
15 57 Saskia  Alusalu EST EST 4:20.03200m - 20.89 - (20.8)
600m - 53.36 - (32.4)
1000m - 1:26.45 - (33.0)
1400m - 2:00.09 - (33.6)
1800m - 2:34.34 - (34.2)
2200m - 3:08.98 - (34.6)
2600m - 3:44.24 - (35.2)
3000m - 4:20.03 - (35.7)
16.10 43.338
16 65 Sofie Karoline  Haugen NOR NOR 4:21.74200m - 21.14 - (21.1)
600m - 53.28 - (32.1)
1000m - 1:25.92 - (32.6)
1400m - 1:58.71 - (32.7)
1800m - 2:32.61 - (33.9)
2200m - 3:07.73 - (35.1)
2600m - 3:44.33 - (36.6)
3000m - 4:21.74 - (37.4)
17.81 43.623
17 51 Viola  Feichtner AUT AUT 4:27.94200m - 21.80 - (21.8)
600m - 56.07 - (34.2)
1000m - 1:30.17 - (34.0)
1400m - 2:04.61 - (34.4)
1800m - 2:39.63 - (35.0)
2200m - 3:15.19 - (35.5)
2600m - 3:51.28 - (36.0)
3000m - 4:27.94 - (36.6)
24.01 44.656
18 64 Ellen  Bjertnes NOR NOR 4:29.14200m - 20.89 - (20.8)
600m - 54.30 - (33.4)
1000m - 1:28.42 - (34.1)
1400m - 2:03.40 - (34.9)
1800m - 2:39.49 - (36.0)
2200m - 3:15.86 - (36.3)
2600m - 3:52.70 - (36.8)
3000m - 4:29.14 - (36.4)
25.21 44.856
19 56 Elena Moeller  Rigas DEN DEN 4:38.15200m - 21.97 - (21.9)
600m - 57.06 - (35.0)
1000m - 1:32.54 - (35.4)
1400m - 2:08.37 - (35.8)
1800m - 2:44.36 - (35.9)
2200m - 3:21.14 - (36.7)
2600m - 3:59.15 - (38.0)
3000m - 4:38.15 - (38.9)
34.22 46.358